Hagerstown, MD

5:34 AM EST on December 17, 2017 (GMT -0500)
Hagerstown Regional-Henson

Weather History for KHGR - February, 2013

Change the Weather History Date:

Tuesday, February 26, 2013

  Actual Average Record
Temperature  
Mean Temperature 35 °F 36 °F  
Max Temperature 39 °F 44 °F 62 °F (2002)
Min Temperature 30 °F 27 °F 12 °F (2003)
Degree Days  
Heating Degree Days 30 29  
Month to date heating degree days 848 822  
Since 1 July heating degree days 3588 3846  
Cooling Degree Days 0 0  
Month to date cooling degree days 0 0  
Year to date cooling degree days 0 0  
Moisture  
Dew Point 31 °F    
Average Humidity 76    
Maximum Humidity 92    
Minimum Humidity 59    
Precipitation  
Precipitation 0.20 in 0.09 in 0.32 in (2008)
Month to date precipitation 0.76 2.36  
Year to date precipitation 3.74 5.04  
Sea Level Pressure  
Sea Level Pressure 29.96 in    
Wind  
Wind Speed 7 mph (ENE)    
Max Wind Speed 17 mph    
Max Gust Speed 23 mph    
Visibility 6 miles    
Events Rain    
T = Trace of Precipitation, MM = Missing Value Source: NWS Daily Summary

Daily Weather History Graph

Daily Weather History Graph

Search for Another Location

Airport or City:

Trip Planner

Search our weather history database for the weather conditions in past years. The results will help you decide how hot, cold, wet, or windy it might be!

Date:

Astronomy

Feb. 26, 2013 Rise Set
Actual Time 6:48 AM EST 6:00 PM EST
Civil Twilight 6:20 AM EST 6:27 PM EST
Nautical Twilight 5:49 AM EST 6:58 PM EST
Astronomical Twilight 5:18 AM EST 7:29 PM EST
Moon 7:14 PM EST (2/26) 6:49 AM EST (2/26)
Length of Visible Light 12h 06m
Length of Day
11h 11m
Full, 99% of the Moon is Illuminated
Feb 26
Full
Mar 4
Last Quarter
Mar 11
New
Mar 19
First Quarter
Mar 27
Full

Hourly Weather History & Observations

Time (EST) Temp. Windchill Dew Point Humidity Pressure Visibility Wind Dir Wind Speed Gust Speed Precip Events Conditions
12:53 AM 34.0 °F 28.0 °F 23.0 °F 64% 30.22 in 10.0 mi SE 6.9 mph - N/A   Clear
1:53 AM 33.1 °F 28.7 °F 21.9 °F 64% 30.23 in 10.0 mi ESE 4.6 mph - N/A   Clear
2:53 AM 30.9 °F 25.2 °F 21.9 °F 69% 30.22 in 10.0 mi East 5.8 mph - N/A   Clear
3:53 AM 30.0 °F 23.2 °F 21.9 °F 72% 30.20 in 10.0 mi East 6.9 mph - N/A   Clear
4:53 AM 30.0 °F 25.2 °F 23.0 °F 75% 30.18 in 10.0 mi ENE 4.6 mph - N/A   Clear
5:53 AM 30.9 °F 26.2 °F 23.0 °F 72% 30.20 in 10.0 mi East 4.6 mph - N/A   Clear
6:53 AM 30.9 °F 26.2 °F 23.0 °F 72% 30.20 in 10.0 mi ENE 4.6 mph - N/A   Clear
7:53 AM 33.1 °F 30.0 °F 24.1 °F 70% 30.21 in 10.0 mi ENE 3.5 mph - N/A   Clear
8:53 AM 36.0 °F 33.3 °F 26.1 °F 67% 30.21 in 10.0 mi East 3.5 mph - N/A   Clear
9:53 AM 37.9 °F 34.4 °F 27.0 °F 65% 30.19 in 10.0 mi ESE 4.6 mph - N/A   Clear
10:53 AM 39.0 °F 31.8 °F 26.1 °F 60% 30.17 in 10.0 mi ESE 11.5 mph - N/A   Overcast
11:53 AM 37.0 °F 31.6 °F 27.0 °F 67% 30.17 in 10.0 mi ESE 6.9 mph - N/A   Overcast
12:29 PM 37.4 °F 30.8 °F 28.4 °F 70% 30.10 in 6.0 mi ESE 9.2 mph - 0.00 in Rain Light Rain
12:53 PM 36.0 °F 31.1 °F 30.0 °F 79% 30.13 in 3.0 mi East 5.8 mph - 0.01 in Rain Light Rain
1:53 PM 35.1 °F 27.9 °F 32.0 °F 89% 30.07 in 5.0 mi East 9.2 mph - 0.04 in Rain Light Rain
2:53 PM 35.1 °F 26.9 °F 33.1 °F 92% 30.02 in 3.0 mi East 11.5 mph - 0.08 in Rain Light Rain
3:29 PM 35.6 °F 26.2 °F 33.8 °F 93% 29.93 in 3.0 mi East 15.0 mph - 0.06 in Rain Light Rain
3:49 PM 37.4 °F 28.2 °F 33.8 °F 87% 29.91 in 6.0 mi East 16.1 mph 21.9 mph 0.07 in Rain Light Rain
3:53 PM 37.0 °F 27.4 °F 34.0 °F 89% 29.95 in 6.0 mi East 17.3 mph 23.0 mph 0.07 in Rain Light Rain
4:53 PM 37.9 °F 28.9 °F 35.1 °F 89% 29.91 in 8.0 mi ENE 16.1 mph 25.3 mph 0.04 in   Overcast
5:53 PM 37.9 °F 28.9 °F 36.0 °F 93% 29.87 in 5.0 mi ENE 16.1 mph - 0.03 in Rain Light Rain
6:53 PM 37.9 °F 29.6 °F 36.0 °F 93% 29.85 in 4.0 mi ENE 13.8 mph - 0.04 in Rain Light Rain
7:03 PM 37.4 °F 28.5 °F 35.6 °F 93% 29.78 in 4.0 mi NE 15.0 mph - 0.04 in Rain Rain
7:53 PM 39.0 °F 29.9 °F 37.0 °F 93% 29.79 in 5.0 mi ENE 17.3 mph 26.5 mph 0.10 in Rain Light Rain
8:43 PM 39.2 °F 35.9 °F 37.4 °F 93% 29.78 in 4.0 mi North 4.6 mph - 0.08 in Rain Light Rain
8:53 PM 37.9 °F 34.4 °F 37.0 °F 97% 29.83 in 3.0 mi North 4.6 mph - 0.12 in Rain Light Rain
9:23 PM 37.4 °F 32.1 °F 37.4 °F 100% 29.78 in 3.0 mi NNW 6.9 mph - 0.05 in Rain Light Rain
9:35 PM 37.4 °F 32.1 °F 35.6 °F 93% 29.76 in 2.5 mi North 6.9 mph - 0.07 in Rain Rain
9:42 PM 37.4 °F 30.8 °F 35.6 °F 93% 29.74 in 2.5 mi NE 9.2 mph - 0.08 in Rain Light Rain
9:53 PM 37.0 °F 28.5 °F 37.0 °F 100% 29.76 in 2.5 mi NE 13.8 mph - 0.11 in Rain Light Rain
10:02 PM 37.4 °F 31.4 °F 37.4 °F 100% 29.73 in 2.5 mi North 8.1 mph - 0.00 in Rain Light Rain
10:11 PM 37.4 °F 32.1 °F 37.4 °F 100% 29.73 in 3.0 mi North 6.9 mph - 0.01 in Rain Light Rain
10:53 PM 37.0 °F 29.3 °F 36.0 °F 96% 29.74 in 4.0 mi North 11.5 mph - 0.01 in   Overcast
11:04 PM 35.6 °F 27.1 °F 35.6 °F 100% 29.69 in 2.5 mi North 12.7 mph - 0.01 in Rain Light Rain
11:33 PM 35.6 °F 26.6 °F 35.6 °F 100% 29.67 in 3.0 mi North 13.8 mph - 0.03 in Rain Light Rain
11:53 PM 36.0 °F 28.0 °F 36.0 °F 100% 29.70 in 4.0 mi North 11.5 mph - 0.03 in   Overcast